Weather History for KCWC - August, 2013

Change the Weather History Date:

Thursday, August 22, 2013

  Actual Average (KSPS) Record (KSPS)
Temperature  
Mean Temperature 84 °F 84 °F  
Max Temperature 96 °F 96 °F 108 °F (1980)
Min Temperature 73 °F 71 °F 60 °F (1949)
Cooling Degree Days 20 18  
Month to date cooling degree days 432  
Year to date cooling degree days 1788  
Growing Degree Days 34 (Base 50)    
Moisture  
Dew Point 63 °F    
Average Humidity 51    
Maximum Humidity 74    
Minimum Humidity 30    
Precipitation  
Precipitation 0.00 in 0.08 in 2.25 in (1950)
Month to date precipitation 1.69  
Year to date precipitation 18.92  
Sea Level Pressure  
Sea Level Pressure 30.03 in    
Wind  
Wind Speed 6 mph (SSE)    
Max Wind Speed 13 mph    
Max Gust Speed 20 mph    
Visibility 10 miles    
Events      
T = Trace of Precipitation, MM = Missing Value Source: NWS Daily Summary

Daily Weather History Graph

Daily Weather History Graph

Search for Another Location

Airport or City:

Trip Planner

Search our weather history database for the weather conditions in past years. The results will help you decide how hot, cold, wet, or windy it might be!

Date:

Astronomy

Aug. 22, 2013 Rise Set
Actual Time 7:00 AM CDT 8:12 PM CDT
Civil Twilight 6:34 AM CDT 8:37 PM CDT
Nautical Twilight 6:04 AM CDT 9:08 PM CDT
Astronomical Twilight 5:31 AM CDT 9:40 PM CDT
Moon 9:06 PM CDT (8/22) 8:43 AM CDT (8/22)
Length of Visible Light 14h 02m
Length of Day
13h 11m
Waning Gibbous, 96% of the Moon is Illuminated
Aug 22
Waning Gibbous
Aug 28
Last Quarter
Sep 5
New
Sep 12
First Quarter
Sep 19
Full

Hourly Weather History & Observations

Time (CDT) Temp. Heat Index Dew Point Humidity Pressure Visibility Wind Dir Wind Speed Gust Speed Precip Events Conditions
12:15 AM 78.8 °F - 63.0 °F 58% 30.06 in 10.0 mi SE 3.5 mph - N/A   Clear
12:35 AM 78.8 °F - 63.5 °F 59% 30.06 in 10.0 mi SE 6.9 mph - N/A   Clear
12:55 AM 78.1 °F - 63.9 °F 61% 30.06 in 10.0 mi SE 5.8 mph - N/A   Clear
1:15 AM 77.5 °F - 64.4 °F 64% 30.06 in 10.0 mi SSE 6.9 mph - N/A   Clear
1:35 AM 77.0 °F - 64.4 °F 65% 30.05 in 10.0 mi SSE 5.8 mph - N/A   Clear
1:55 AM 76.1 °F - 64.4 °F 67% 30.05 in 10.0 mi SSE 5.8 mph - N/A   Clear
2:15 AM 75.0 °F - 64.6 °F 70% 30.05 in 10.0 mi SSE 4.6 mph - N/A   Clear
2:35 AM 74.5 °F - 64.6 °F 71% 30.04 in 10.0 mi SSE 4.6 mph - N/A   Clear
2:55 AM 74.5 °F - 64.4 °F 71% 30.04 in 10.0 mi SSE 4.6 mph - N/A   Clear
3:15 AM 74.3 °F - 64.4 °F 71% 30.04 in 10.0 mi SSE 4.6 mph - N/A   Clear
3:35 AM 73.8 °F - 64.6 °F 73% 30.05 in 10.0 mi SSE 3.5 mph - N/A   Clear
3:55 AM 74.3 °F - 64.6 °F 72% 30.05 in 10.0 mi SE 3.5 mph - N/A   Scattered Clouds
4:15 AM 75.2 °F - 64.6 °F 69% 30.06 in 10.0 mi Calm Calm - N/A   Mostly Cloudy
4:35 AM 75.6 °F - 64.4 °F 68% 30.06 in 10.0 mi Calm Calm - N/A   Mostly Cloudy
4:55 AM 74.5 °F - 64.8 °F 72% 30.06 in 10.0 mi SE 5.8 mph - N/A   Scattered Clouds
5:15 AM 73.6 °F - 64.8 °F 74% 30.05 in 10.0 mi SSE 5.8 mph - N/A   Clear
5:35 AM 74.3 °F - 64.6 °F 72% 30.06 in 10.0 mi SSE 6.9 mph - N/A   Scattered Clouds
5:55 AM 74.3 °F - 64.8 °F 72% 30.06 in 10.0 mi SSE 6.9 mph - N/A   Scattered Clouds
6:15 AM 74.1 °F - 64.6 °F 72% 30.06 in 10.0 mi SSE 6.9 mph - N/A   Clear
6:35 AM 74.5 °F - 64.8 °F 72% 30.07 in 10.0 mi SSE 4.6 mph - N/A   Scattered Clouds
6:55 AM 75.2 °F - 65.3 °F 71% 30.07 in 10.0 mi SE 3.5 mph - N/A   Mostly Cloudy
7:15 AM 75.9 °F - 65.3 °F 70% 30.08 in 10.0 mi SE 5.8 mph - N/A   Overcast
7:35 AM 76.1 °F - 65.3 °F 69% 30.08 in 10.0 mi SSE 4.6 mph - N/A   Mostly Cloudy
7:55 AM 75.7 °F - 65.5 °F 70% 30.09 in 10.0 mi SE 3.5 mph - N/A   Scattered Clouds
8:15 AM 77.5 °F - 65.8 °F 67% 30.09 in 10.0 mi SSE 8.1 mph - N/A   Scattered Clouds
8:35 AM 79.2 °F - 66.2 °F 64% 30.09 in 10.0 mi SSE 8.1 mph - N/A   Mostly Cloudy
8:55 AM 80.4 °F 82.7 °F 66.6 °F 63% 30.09 in 10.0 mi South 6.9 mph - N/A   Scattered Clouds
9:15 AM 81.7 °F 84.0 °F 66.6 °F 60% 30.09 in 10.0 mi South 8.1 mph - N/A   Scattered Clouds
9:35 AM 83.3 °F 85.3 °F 65.8 °F 55% 30.09 in 10.0 mi South 6.9 mph - N/A   Clear
9:55 AM 85.1 °F 87.1 °F 65.7 °F 52% 30.09 in 10.0 mi SSW 8.1 mph - N/A   Clear
10:15 AM 86.4 °F 88.4 °F 65.5 °F 50% 30.09 in 10.0 mi South 6.9 mph - N/A   Clear
10:35 AM 87.3 °F 88.9 °F 64.9 °F 47% 30.09 in 10.0 mi SSW 6.9 mph - N/A   Clear
10:55 AM 88.0 °F 89.3 °F 64.0 °F 45% 30.09 in 10.0 mi SW 5.8 mph - N/A   Clear
11:15 AM 89.6 °F 90.8 °F 63.7 °F 42% 30.09 in 10.0 mi South 6.9 mph - N/A   Clear
11:35 AM 89.8 °F 90.4 °F 62.8 °F 40% 30.09 in 10.0 mi SSW 6.9 mph - N/A   Clear
11:55 AM 90.7 °F 91.0 °F 62.1 °F 38% 30.09 in 10.0 mi SSW 8.1 mph - N/A   Scattered Clouds
12:15 PM 91.6 °F 91.6 °F 61.3 °F 36% 30.08 in 10.0 mi South 5.8 mph - N/A   Scattered Clouds
12:35 PM 91.8 °F 91.5 °F 60.6 °F 35% 30.07 in 10.0 mi South 9.2 mph - N/A   Scattered Clouds
12:55 PM 91.4 °F 91.4 °F 60.6 °F 36% 30.06 in 10.0 mi SW 9.2 mph - N/A   Scattered Clouds
1:15 PM 93.4 °F 93.2 °F 60.3 °F 33% 30.05 in 10.0 mi SSW 8.1 mph 16.1 mph N/A   Scattered Clouds
1:35 PM 93.4 °F 92.8 °F 59.7 °F 32% 30.05 in 10.0 mi SW 9.2 mph 17.3 mph N/A   Mostly Cloudy
1:55 PM 93.7 °F 93.0 °F 59.2 °F 31% 30.04 in 10.0 mi SSW 8.1 mph 18.4 mph N/A   Scattered Clouds
2:15 PM 94.5 °F 94.4 °F 60.1 °F 32% 30.04 in 10.0 mi South 6.9 mph - N/A   Scattered Clouds
2:35 PM 93.4 °F 92.8 °F 59.4 °F 32% 30.03 in 10.0 mi South 8.1 mph - N/A   Scattered Clouds
2:55 PM 93.9 °F 93.6 °F 59.5 °F 32% 30.02 in 10.0 mi SSE 9.2 mph 16.1 mph N/A   Mostly Cloudy
3:15 PM 94.8 °F 94.5 °F 59.9 °F 31% 30.01 in 10.0 mi SSE 9.2 mph - N/A   Mostly Cloudy
3:35 PM 95.5 °F 95.6 °F 60.1 °F 31% 30.00 in 10.0 mi SSE 11.5 mph - N/A   Mostly Cloudy
3:55 PM 94.5 °F 94.0 °F 59.9 °F 31% 29.99 in 10.0 mi SE 3.5 mph - N/A   Mostly Cloudy
4:15 PM 95.5 °F 95.6 °F 60.1 °F 31% 29.98 in 10.0 mi SE 12.7 mph 18.4 mph N/A   Scattered Clouds
4:35 PM 95.2 °F 95.1 °F 60.3 °F 31% 29.97 in 10.0 mi SSE 12.7 mph - N/A   Scattered Clouds
4:55 PM 96.4 °F 96.5 °F 60.6 °F 30% 29.97 in 10.0 mi South 12.7 mph 19.6 mph N/A   Scattered Clouds
5:15 PM 93.9 °F 93.6 °F 60.3 °F 32% 29.97 in 10.0 mi SSE 10.4 mph 17.3 mph N/A   Scattered Clouds
5:35 PM 95.0 °F 95.2 °F 60.6 °F 32% 29.96 in 10.0 mi SE 9.2 mph - N/A   Scattered Clouds
5:55 PM 95.4 °F 95.3 °F 60.4 °F 31% 29.96 in 10.0 mi SSE 8.1 mph - N/A   Scattered Clouds
6:15 PM 95.0 °F 95.2 °F 60.6 °F 32% 29.95 in 10.0 mi SE 11.5 mph - N/A   Clear
6:35 PM 95.0 °F 95.2 °F 60.6 °F 32% 29.95 in 10.0 mi SSE 8.1 mph - N/A   Clear
6:55 PM 94.5 °F 94.4 °F 60.4 °F 32% 29.95 in 10.0 mi SSE 9.2 mph - N/A   Clear
7:15 PM 93.7 °F 93.7 °F 60.8 °F 33% 29.95 in 10.0 mi SSE 8.1 mph - N/A   Clear
7:35 PM 92.8 °F 92.8 °F 60.8 °F 34% 29.95 in 10.0 mi SE 9.2 mph - N/A   Clear
7:55 PM 91.4 °F 91.7 °F 61.9 °F 37% 29.95 in 10.0 mi SE 5.8 mph - N/A   Clear
8:15 PM 89.6 °F 90.1 °F 62.6 °F 40% 29.96 in 10.0 mi SSE 5.8 mph - N/A   Clear
8:35 PM 88.2 °F 88.7 °F 62.4 °F 42% 29.96 in 10.0 mi SSE 6.9 mph - N/A   Clear
8:55 PM 86.9 °F 87.5 °F 62.8 °F 44% 29.97 in 10.0 mi SE 5.8 mph - N/A   Clear
9:15 PM 86.0 °F 86.8 °F 62.8 °F 46% 29.97 in 10.0 mi SSE 6.9 mph - N/A   Clear
9:35 PM 85.3 °F 86.1 °F 63.1 °F 47% 29.98 in 10.0 mi SSE 5.8 mph - N/A   Clear
9:55 PM 84.0 °F 85.4 °F 63.9 °F 51% 29.99 in 10.0 mi SSE 5.8 mph - N/A   Clear
10:15 PM 83.1 °F 84.6 °F 64.4 °F 53% 30.00 in 10.0 mi SSE 5.8 mph - N/A   Clear
10:35 PM 82.8 °F 84.3 °F 64.6 °F 54% 30.00 in 10.0 mi SSE 5.8 mph - N/A   Clear
10:55 PM 82.8 °F 84.3 °F 64.4 °F 54% 30.00 in 10.0 mi SE 6.9 mph - N/A   Clear
11:15 PM 82.4 °F 84.1 °F 64.8 °F 55% 30.01 in 10.0 mi SE 5.8 mph - N/A   Clear
11:35 PM 81.5 °F 83.3 °F 65.1 °F 57% 30.02 in 10.0 mi Calm Calm - N/A   Scattered Clouds
11:55 PM 80.6 °F 82.5 °F 65.7 °F 60% 30.02 in 10.0 mi SE 4.6 mph - N/A   Scattered Clouds